Volver al catálogo

DELTA 1 DEB

ActivoSSO
NORAD 7167·DEBRIS·🇺🇸 United States

Lanzado Nov 6, 1973 desde Vandenberg Space Force Base

Loading…

Próximos Pases (próximas 24 horas)

TLE

ActualizadoSource: Space-Track

Época: Sep 14, 2026, 10:07 UTC

1 07167U 73086EF  26257.42221424  .00000265  00000-0  19029-2 0  9994
2 07167 101.9921  58.3613 0041129 343.0808  44.7863 12.55463882405099

Sigue DELTA 1 DEB en tiempo real con AllMySat

Download on the App Store